Track STARLINK-1192 now! 10-day predictions STARLINK-1192 is classified as:
1 45180U 20012C 21101.91384539 -.00001177 00000-0 -60146-4 0 9999 2 45180 53.0569 174.7003 0001055 140.1467 219.9599 15.06391485 63975